When you browse on this site, cookies collect data to enhance your experience and personalize the content and advertising you see.
Visit our Privacy Policy to learn more. By continuing to use the site, you agree to this use of cookies and data.
  • în România
  • Lista ţărilor
  • Pe 7 zile
  • Temperatura apei
  • Hartă satelitară
  • Meteo pe hartă
  • Widget-uri
  • user-avatar
    Intrare

    Meteo pe oră la Syuvyaoro

    Astăzi, 17 Februarie, Duminică

    Timp Temperatura Precipitaţii Vânt Presiune Umiditate
    00:00 -2°C° 0 mm 6 m/s 738 mmHg 80%
    01:00 -3°C° 0 mm 6 m/s 738 mmHg 78%
    02:00 -3°C° 0 mm 6 m/s 738 mmHg 75%
    03:00 -3°C° 0 mm 7 m/s 738 mmHg 74%
    04:00 -3°C° 0 mm 7 m/s 738 mmHg 73%
    05:00 -3°C° 0 mm 7 m/s 738 mmHg 72%
    06:00 -4°C° 0 mm 8 m/s 739 mmHg 72%
    07:00 -4°C° 0 mm 8 m/s 739 mmHg 72%
    08:00 -2°C° 0 mm 8 m/s 739 mmHg 73%
    09:00 -4°C° 0 mm 8 m/s 740 mmHg 72%
    10:00 -4°C° 0 mm 8 m/s 742 mmHg 70%
    11:00 -4°C° 0 mm 8 m/s 743 mmHg 68%
    12:00 -4°C° 0 mm 8 m/s 744 mmHg 68%
    13:00 -4°C° 0 mm 8 m/s 745 mmHg 68%
    14:00 -3°C° 0 mm 7 m/s 746 mmHg 66%
    15:00 -4°C° 0 mm 6 m/s 748 mmHg 68%
    16:00 -5°C° 0 mm 6 m/s 749 mmHg 69%
    17:00 -6°C° 0 mm 5 m/s 750 mmHg 71%
    18:00 -7°C° 0 mm 5 m/s 751 mmHg 74%
    19:00 -7°C° 0 mm 5 m/s 752 mmHg 76%
    20:00 -8°C° 0 mm 4 m/s 753 mmHg 78%
    21:00 -9°C° 0 mm 4 m/s 754 mmHg 81%
    22:00 -9°C° 0 mm 4 m/s 755 mmHg 83%
    23:00 -9°C° 0 mm 3 m/s 755 mmHg 85%

    Mâine, 18 Februarie, Luni

    Timp Temperatura Precipitaţii Vânt Presiune Umiditate
    00:00 -9°C° 0 mm 3 m/s 756 mmHg 87%
    01:00 -10°C° 0 mm 3 m/s 756 mmHg 89%
    02:00 -10°C° 0 mm 2 m/s 757 mmHg 91%
    03:00 -10°C° 0 mm 2 m/s 757 mmHg 92%
    04:00 -12°C° 0 mm 2 m/s 758 mmHg 92%
    05:00 -11°C° 0 mm 1 m/s 758 mmHg 93%
    06:00 -11°C° 0 mm 1 m/s 758 mmHg 92%
    07:00 -11°C° 0 mm 1 m/s 758 mmHg 90%
    08:00 -12°C° 0 mm 0 m/s 758 mmHg 89%
    09:00 -10°C° 0 mm 1 m/s 758 mmHg 86%
    10:00 -8°C° 0 mm 1 m/s 758 mmHg 84%
    11:00 -8°C° 0 mm 2 m/s 758 mmHg 81%
    12:00 -8°C° 0 mm 3 m/s 757 mmHg 80%
    13:00 -8°C° 0 mm 3 m/s 756 mmHg 79%
    14:00 -8°C° 0 mm 4 m/s 756 mmHg 78%
    15:00 -8°C° 0 mm 4 m/s 755 mmHg 77%
    16:00 -7°C° 0 mm 5 m/s 754 mmHg 75%
    17:00 -7°C° 0 mm 5 m/s 753 mmHg 73%
    18:00 -6°C° 0 mm 5 m/s 752 mmHg 76%
    19:00 -6°C° 0 mm 5 m/s 751 mmHg 79%
    20:00 -5°C° 0 mm 6 m/s 750 mmHg 82%
    21:00 -4°C° 0.1 mm 6 m/s 749 mmHg 83%
    22:00 -3°C° 0.1 mm 6 m/s 748 mmHg 85%
    23:00 -2°C° 0.1 mm 6 m/s 747 mmHg 86%

    Poimâine, 19 Februarie, Marţi

    Timp Temperatura Precipitaţii Vânt Presiune Umiditate
    00:00 -2°C° 0.2 mm 6 m/s 746 mmHg 88%
    01:00 -1°C° 0.2 mm 6 m/s 746 mmHg 89%
    02:00 -1°C° 0.2 mm 6 m/s 745 mmHg 91%
    03:00 -1°C° 0 mm 6 m/s 745 mmHg 92%
    04:00 -1°C° 0 mm 6 m/s 744 mmHg 92%
    05:00 -1°C° 0 mm 6 m/s 744 mmHg 93%
    06:00 0°C° 0 mm 5 m/s 743 mmHg 93%
    07:00 0°C° 0 mm 5 m/s 743 mmHg 93%
    08:00 0°C° 0 mm 5 m/s 743 mmHg 93%
    09:00 0°C° 0 mm 5 m/s 742 mmHg 93%
    10:00 0°C° 0 mm 5 m/s 742 mmHg 93%
    11:00 0°C° 0 mm 5 m/s 742 mmHg 93%
    12:00 0°C° 0.4 mm 5 m/s 741 mmHg 93%
    13:00 0°C° 0.4 mm 5 m/s 741 mmHg 93%
    14:00 0°C° 0.4 mm 4 m/s 741 mmHg 94%
    15:00 0°C° 0.6 mm 4 m/s 740 mmHg 94%
    16:00 0°C° 0.6 mm 4 m/s 739 mmHg 95%
    17:00 0°C° 0.6 mm 4 m/s 739 mmHg 95%
    18:00 0°C° 0.6 mm 4 m/s 738 mmHg 95%
    19:00 0°C° 0.6 mm 4 m/s 738 mmHg 95%
    20:00 0°C° 0.6 mm 4 m/s 737 mmHg 95%
    21:00 0°C° 0 mm 4 m/s 737 mmHg 95%
    22:00 -1°C° 0 mm 4 m/s 737 mmHg 95%
    23:00 -1°C° 0 mm 4 m/s 736 mmHg 94%

    20 Februarie, Miercuri

    Timp Temperatura Precipitaţii Vânt Presiune Umiditate
    00:00 0°C° 0 mm 3 m/s 736 mmHg 95%
    01:00 0°C° 0 mm 3 m/s 735 mmHg 95%
    02:00 0°C° 0 mm 3 m/s 735 mmHg 95%
    03:00 0°C° 0 mm 3 m/s 735 mmHg 95%
    04:00 0°C° 0 mm 3 m/s 734 mmHg 94%
    05:00 0°C° 0 mm 3 m/s 734 mmHg 94%
    06:00 0°C° 0.1 mm 3 m/s 734 mmHg 93%
    07:00 0°C° 0.1 mm 3 m/s 733 mmHg 92%
    08:00 -1°C° 0.1 mm 4 m/s 733 mmHg 91%
    09:00 0°C° 0 mm 3 m/s 733 mmHg 91%
    10:00 0°C° 0 mm 3 m/s 733 mmHg 91%
    11:00 0°C° 0 mm 3 m/s 733 mmHg 91%
    12:00 0°C° 0.3 mm 3 m/s 733 mmHg 89%
    13:00 0°C° 0.3 mm 3 m/s 733 mmHg 88%
    14:00 0°C° 0.3 mm 3 m/s 733 mmHg 87%
    15:00 -1°C° 0.1 mm 3 m/s 733 mmHg 86%
    16:00 -1°C° 0.1 mm 3 m/s 734 mmHg 85%
    17:00 -2°C° 0.1 mm 3 m/s 734 mmHg 84%
    18:00 -3°C° 0.4 mm 4 m/s 735 mmHg 86%
    19:00 -3°C° 0.4 mm 4 m/s 736 mmHg 89%
    20:00 -4°C° 0.4 mm 5 m/s 737 mmHg 91%
    21:00 -5°C° 0.2 mm 6 m/s 738 mmHg 89%
    22:00 -7°C° 0.2 mm 7 m/s 739 mmHg 87%
    23:00 -8°C° 0.2 mm 8 m/s 740 mmHg 85%

    21 Februarie, Joi

    Timp Temperatura Precipitaţii Vânt Presiune Umiditate
    00:00 -10°C° 0.2 mm 8 m/s 741 mmHg 83%
    01:00 -11°C° 0.2 mm 8 m/s 742 mmHg 81%
    02:00 -12°C° 0.2 mm 8 m/s 744 mmHg 79%
    03:00 -12°C° 0.1 mm 8 m/s 745 mmHg 78%
    04:00 -12°C° 0.1 mm 8 m/s 747 mmHg 76%
    05:00 -12°C° 0.1 mm 7 m/s 748 mmHg 75%
    06:00 -13°C° 0 mm 7 m/s 749 mmHg 75%
    07:00 -13°C° 0 mm 7 m/s 751 mmHg 74%
    08:00 -13°C° 0 mm 7 m/s 752 mmHg 74%
    09:00 -12°C° 0 mm 6 m/s 753 mmHg 74%
    10:00 -12°C° 0 mm 6 m/s 754 mmHg 74%
    11:00 -12°C° 0 mm 5 m/s 755 mmHg 74%
    12:00 -12°C° 0 mm 5 m/s 756 mmHg 73%
    13:00 -12°C° 0 mm 5 m/s 757 mmHg 71%
    14:00 -11°C° 0 mm 5 m/s 757 mmHg 70%
    15:00 -11°C° 0 mm 4 m/s 758 mmHg 72%
    16:00 -11°C° 0 mm 4 m/s 759 mmHg 74%
    17:00 -12°C° 0 mm 3 m/s 759 mmHg 76%
    18:00 -12°C° 0 mm 3 m/s 760 mmHg 79%
    19:00 -13°C° 0 mm 3 m/s 760 mmHg 82%
    20:00 -12°C° 0 mm 2 m/s 761 mmHg 85%
    21:00 -12°C° 0 mm 2 m/s 762 mmHg 86%
    22:00 -13°C° 0 mm 2 m/s 762 mmHg 87%
    23:00 -13°C° 0 mm 2 m/s 763 mmHg 88%

    22 Februarie, Vineri

    Timp Temperatura Precipitaţii Vânt Presiune Umiditate
    00:00 -13°C° 0 mm 2 m/s 763 mmHg 86%
    01:00 -13°C° 0 mm 2 m/s 763 mmHg 85%
    02:00 -13°C° 0 mm 2 m/s 764 mmHg 84%
    03:00 -13°C° 0 mm 2 m/s 764 mmHg 82%
    04:00 -13°C° 0 mm 2 m/s 764 mmHg 81%
    05:00 -13°C° 0 mm 2 m/s 765 mmHg 79%
    06:00 -13°C° 0 mm 2 m/s 765 mmHg 78%
    07:00 -13°C° 0 mm 2 m/s 766 mmHg 77%
    08:00 -13°C° 0 mm 2 m/s 766 mmHg 76%
    09:00 -13°C° 0 mm 3 m/s 766 mmHg 74%
    10:00 -12°C° 0 mm 3 m/s 766 mmHg 71%
    11:00 -10°C° 0 mm 3 m/s 767 mmHg 69%
    12:00 -9°C° 0 mm 3 m/s 767 mmHg 69%
    13:00 -8°C° 0 mm 3 m/s 767 mmHg 69%
    14:00 -8°C° 0 mm 3 m/s 767 mmHg 69%
    15:00 -7°C° 0 mm 2 m/s 767 mmHg 73%
    16:00 -8°C° 0 mm 2 m/s 767 mmHg 78%
    17:00 -9°C° 0 mm 2 m/s 766 mmHg 82%
    18:00 -8°C° 0 mm 2 m/s 766 mmHg 84%
    19:00 -8°C° 0 mm 2 m/s 766 mmHg 85%
    20:00 -8°C° 0 mm 2 m/s 765 mmHg 86%
    21:00 -8°C° 0.1 mm 3 m/s 765 mmHg 88%
    22:00 -8°C° 0.1 mm 3 m/s 764 mmHg 90%
    23:00 -8°C° 0.1 mm 4 m/s 763 mmHg 92%
    Arată mai mult